User: anonymous   Login
Location: The D'Auria's Ocala Star Observatory
(29.0276°N, 82.1742°W)
Time: 15:50:44
(UTC-05:00)
Language:

Abrixas rocket - Orbit

View from above orbital plane
View from above orbital plane
View from above satellite
View from above satellite

Ground track
Ground track

The orbit data is extracted from the following two-line orbital elements,

1 25723U 99022C   17347.89554250 +.00007921 +00000-0 +11308-3 0  9996
2 25723 048.4155 287.2761 0009345 182.0951 177.9957 15.57113904034152
Epoch (UTC): 13 December 2017 21:29:34
Eccentricity: 0.0009345
inclination: 48.4155°
perigee height: 389 km
apogee height: 402 km
right ascension of ascending node: 287.2761°
argument of perigee: 182.0951°
revolutions per day: 15.57113904
mean anomaly at epoch: 177.9957°
orbit number at epoch: 3415

The dashed part of the orbit path shows where the satellite is in the earth's shadow,  

DLR